Location: Newark
(39.0622°N, 106.5590°E)
Time: 05:27:04
(UTC+00:00)

Vanguard 2 Rocket - Pass Details

Date: 01 February 2020
Orbit: 554 x 3327 km, 32.9° (Epoch: 20 February)

Event Time Altitude Azimuth Distance (km) Brightness Sun altitude
Rises 21:50:28 0° 259° (W) 2,724 - -25.4°
Reaches altitude 10° 21:52:42 10° 250° (WSW) 1,827 - -25.0°
Maximum altitude 21:56:21 36° 182° (S) 951 - -24.3°
Exits shadow 21:56:22 36° 182° (S) 951 6.9 -24.3°
Drops below altitude 10° 22:00:52 10° 115° (ESE) 2,267 9.9 -23.4°
Sets 22:03:56 0° 108° (ESE) 3,505 11.3 -22.8°
